Weather History for Mount Airy, NC

Change the Weather History Date:

Sunday, December 8, 2013

  Actual Average (KINT) Record (KINT)
Temperature  
Mean Temperature 36 °F -  
Max Temperature 39 °F 50 °F 75 °F (1998)
Min Temperature 32 °F 34 °F 12 °F (1977)
Degree Days  
Heating Degree Days 30    
Moisture  
Dew Point 32 °F    
Average Humidity 90    
Maximum Humidity 94    
Minimum Humidity 83    
Precipitation  
Precipitation 0.45 in - - ()
Sea Level Pressure  
Sea Level Pressure 30.36 in    
Wind  
Wind Speed 5 mph (ENE)    
Max Wind Speed 13 mph    
Max Gust Speed 18 mph    
Visibility 6 miles    
Events Rain , Snow    
Averages and records for this station are not official NWS values.
T = Trace of Precipitation, MM = Missing Value Source: NWS Daily Summary

Daily Weather History Graph

Daily Weather History Graph

Search for Another Location

Airport:

Trip Planner

Search our weather history database for the weather conditions in past years. The results will help you decide how hot, cold, wet, or windy it might be!

Date:

Astronomy

Dec. 08, 2013 Rise Set
Actual Time 7:21 AM EST 5:06 PM EST
Civil Twilight 6:53 AM EST 5:35 PM EST
Nautical Twilight 6:20 AM EST 6:07 PM EST
Astronomical Twilight 5:49 AM EST 6:38 PM EST
Moon 11:49 AM EST (12/8) 11:45 PM EST (12/8)
Length of Visible Light 10h 42m
Length of Day
9h 45m
Waxing Crescent, 40% of the Moon is Illuminated
Dec 8
Waxing Crescent
Dec 9
First Quarter
Dec 17
Full
Dec 25
Last Quarter
Jan 1
New

Hourly Weather History & Observations

Time (EST) Temp. Windchill Dew Point Humidity Pressure Visibility Wind Dir Wind Speed Gust Speed Precip Events Conditions
12:15 AM 39.9 °F 35.8 °F 35.8 °F 85% 30.41 in 5.0 mi ENE 5.8 mph - N/A   Overcast
12:35 AM 39.4 °F 36.1 °F 36.0 °F 88% 30.41 in 7.0 mi ENE 4.6 mph - N/A   Overcast
12:55 AM 39.4 °F 36.1 °F 36.5 °F 89% 30.41 in 3.0 mi ENE 4.6 mph - N/A   Overcast
1:15 AM 39.0 °F 36.8 °F 36.5 °F 91% 30.41 in 3.0 mi East 3.5 mph - N/A   Drizzle
1:35 AM 38.8 °F 33.2 °F 36.1 °F 90% 30.41 in 10.0 mi ENE 8.1 mph - N/A   Overcast
1:55 AM 38.5 °F 31.6 °F 34.9 °F 87% 30.41 in 10.0 mi East 10.4 mph - N/A   Overcast
2:15 AM 38.5 °F 32.7 °F 34.7 °F 86% 30.40 in 10.0 mi East 8.1 mph - N/A   Overcast
2:35 AM 38.5 °F 34.1 °F 34.2 °F 84% 30.39 in 10.0 mi East 5.8 mph - N/A   Overcast
2:55 AM 38.7 °F 35.2 °F 34.0 °F 83% 30.40 in 10.0 mi NE 4.6 mph - N/A   Overcast
3:15 AM 38.5 °F 34.1 °F 33.8 °F 83% 30.39 in 10.0 mi NE 5.8 mph - N/A   Overcast
3:35 AM 38.3 °F 33.9 °F 33.6 °F 83% 30.40 in 10.0 mi NE 5.8 mph - N/A   Overcast
3:55 AM 38.3 °F 33.9 °F 34.0 °F 84% 30.39 in 10.0 mi ENE 5.8 mph - N/A Rain Light Rain
4:15 AM 37.6 °F 34.0 °F 34.0 °F 87% 30.37 in 7.0 mi NE 4.6 mph - 0.01 in Rain Light Rain
4:35 AM 37.0 °F 33.3 °F 33.3 °F 86% 30.39 in 10.0 mi NE 4.6 mph - 0.03 in Rain Light Rain
4:55 AM 36.9 °F 30.7 °F 33.4 °F 87% 30.38 in 5.0 mi NNE 8.1 mph - 0.06 in Rain Light Rain
5:15 AM 36.5 °F 33.9 °F 33.1 °F 87% 30.38 in 10.0 mi ENE 3.5 mph - 0.01 in   Light Drizzle
5:35 AM 36.7 °F 34.1 °F 33.3 °F 87% 30.40 in 10.0 mi NE 3.5 mph - 0.01 in   Overcast
5:55 AM 36.0 °F 27.5 °F 32.5 °F 87% 30.37 in 7.0 mi ENE 12.7 mph 17.3 mph 0.03 in Rain Rain
6:15 AM 35.6 °F 29.2 °F 32.4 °F 88% 30.38 in 4.0 mi East 8.1 mph - 0.05 in Rain Rain
6:35 AM 35.6 °F 29.2 °F 32.2 °F 87% 30.38 in 7.0 mi ENE 8.1 mph - 0.06 in Rain Light Rain
6:55 AM 35.1 °F 30.1 °F 32.0 °F 89% 30.41 in 5.0 mi East 5.8 mph - 0.08 in   Overcast
7:15 AM 34.7 °F 28.8 °F 32.0 °F 90% 30.41 in 7.0 mi ENE 6.9 mph - 0.02 in   Overcast
7:35 AM 34.3 °F 28.4 °F 31.6 °F 90% 30.40 in 7.0 mi ENE 6.9 mph - 0.03 in   Overcast
7:55 AM 34.2 °F 26.8 °F 31.5 °F 90% 30.38 in 10.0 mi East 9.2 mph - 0.03 in   Overcast
8:15 AM 33.8 °F 27.7 °F 31.1 °F 90% 30.41 in 7.0 mi ENE 6.9 mph 18.4 mph N/A   Overcast
8:35 AM 33.8 °F 26.4 °F 31.1 °F 90% 30.39 in 7.0 mi East 9.2 mph 17.3 mph N/A   Overcast
8:55 AM 33.3 °F 25.1 °F 30.9 °F 91% 30.40 in 2.5 mi East 10.4 mph - N/A   Overcast
9:15 AM 33.1 °F 26.9 °F 30.7 °F 91% 30.40 in 2.5 mi East 6.9 mph 18.4 mph 0.05 in Snow Light Snow
9:35 AM 32.9 °F 26.7 °F 30.6 °F 91% 30.42 in 5.0 mi East 6.9 mph - 0.05 in   Overcast
10:15 AM 32.4 °F 27.9 °F 30.0 °F 91% 30.41 in 2.0 mi ESE 4.6 mph - N/A   Overcast
10:35 AM 32.4 °F 25.3 °F 30.2 °F 92% 30.42 in 2.5 mi East 8.1 mph - N/A   Overcast
10:55 AM 32.4 °F 26.0 °F 30.4 °F 92% 30.41 in 3.0 mi East 6.9 mph - N/A   Overcast
11:15 AM 32.7 °F 27.3 °F 30.6 °F 92% 30.41 in 3.0 mi ENE 5.8 mph - N/A   Overcast
11:35 AM 32.7 °F 25.0 °F 30.6 °F 92% 30.39 in 4.0 mi East 9.2 mph - N/A   Overcast
12:15 PM 32.4 °F 26.0 °F 30.2 °F 92% 30.38 in 4.0 mi ENE 6.9 mph - N/A   Overcast
12:35 PM 32.4 °F 26.9 °F 30.2 °F 92% 30.39 in 3.0 mi East 5.8 mph - 0.01 in   Overcast
12:55 PM 33.1 °F - 30.9 °F 92% 30.37 in 4.0 mi Calm Calm - 0.03 in   Overcast
1:15 PM 32.9 °F 29.8 °F 30.9 °F 92% 30.36 in 5.0 mi ENE 3.5 mph - 0.01 in   Overcast
1:35 PM 32.4 °F 26.9 °F 30.2 °F 92% 30.35 in 1.0 mi ENE 5.8 mph - 0.09 in Snow Light Snow
1:55 PM 32.9 °F 27.5 °F 30.7 °F 92% 30.34 in 3.0 mi NE 5.8 mph - 0.15 in   Overcast
2:15 PM 32.9 °F 27.5 °F 30.4 °F 90% 30.34 in 4.0 mi ENE 5.8 mph - 0.01 in   Overcast
2:35 PM 33.1 °F 27.7 °F 30.7 °F 91% 30.33 in 10.0 mi East 5.8 mph - 0.01 in   Overcast
2:55 PM 33.1 °F 28.7 °F 30.6 °F 90% 30.33 in 10.0 mi East 4.6 mph - 0.01 in   Overcast
3:15 PM 33.1 °F 28.7 °F 30.7 °F 91% 30.32 in 10.0 mi ENE 4.6 mph - N/A   Overcast
3:35 PM 33.1 °F 27.7 °F 30.9 °F 92% 30.32 in 10.0 mi East 5.8 mph - N/A   Overcast
3:55 PM 32.9 °F 29.8 °F 30.4 °F 90% 30.32 in 10.0 mi East 3.5 mph - N/A   Overcast
4:15 PM 32.9 °F 26.7 °F 30.6 °F 91% 30.32 in 10.0 mi East 6.9 mph - N/A   Overcast
4:35 PM 32.9 °F 29.8 °F 30.7 °F 92% 30.31 in 4.0 mi East 3.5 mph - N/A   Overcast
4:55 PM 32.9 °F 29.8 °F 30.4 °F 90% 30.32 in 10.0 mi East 3.5 mph - N/A   Overcast
5:15 PM 32.5 °F - 30.4 °F 92% 30.32 in 5.0 mi Calm Calm - N/A   Overcast
5:35 PM 32.5 °F 29.3 °F 30.4 °F 92% 30.30 in 5.0 mi ENE 3.5 mph - N/A   Overcast
5:55 PM 32.5 °F - 30.7 °F 93% 30.31 in 4.0 mi Calm Calm - N/A   Overcast
6:15 PM 32.4 °F 26.9 °F 30.7 °F 94% 30.30 in 4.0 mi ENE 5.8 mph - N/A   Overcast
6:35 PM 32.4 °F - 30.7 °F 94% 30.31 in 3.0 mi Calm Calm - N/A   Overcast
6:55 PM 32.4 °F - 30.9 °F 94% 30.32 in 3.0 mi Calm Calm - N/A   Overcast
7:15 PM 32.5 °F - 30.9 °F 94% 30.32 in 4.0 mi Calm Calm - N/A   Overcast
7:35 PM 32.9 °F - 31.1 °F 93% 30.31 in 3.0 mi Calm Calm - N/A   Overcast
7:55 PM 33.1 °F - 31.3 °F 93% 30.30 in 3.0 mi Calm Calm - N/A   Overcast
8:15 PM 33.1 °F 28.7 °F 31.1 °F 92% 30.30 in 3.0 mi East 4.6 mph - 0.01 in   Overcast
8:35 PM 32.9 °F - 31.1 °F 93% 30.31 in 5.0 mi Calm Calm - 0.01 in   Overcast
8:55 PM 33.1 °F - 31.1 °F 92% 30.31 in 10.0 mi Calm Calm - 0.01 in   Overcast
9:15 PM 33.1 °F - 31.1 °F 92% 30.30 in 3.0 mi Calm Calm - N/A   Overcast
9:35 PM 32.9 °F - 31.1 °F 93% 30.29 in 5.0 mi Calm Calm - N/A   Overcast
9:55 PM 32.9 °F - 31.1 °F 93% 30.29 in 7.0 mi Calm Calm - N/A   Overcast
10:15 PM 33.1 °F - 31.1 °F 92% 30.29 in 5.0 mi Calm Calm - N/A   Overcast
11:15 PM 33.1 °F - 31.1 °F 92% 30.27 in 10.0 mi Calm Calm - N/A   Overcast
11:35 PM 32.9 °F - 31.1 °F 93% 30.25 in 10.0 mi Calm Calm - N/A   Overcast
11:55 PM 33.1 °F - 31.1 °F 92% 30.25 in 7.0 mi Calm Calm - N/A   Overcast